Weather History for KUDG - May, 2014

Change the Weather History Date:

Thursday, May 8, 2014

  Actual Average (KFLO) Record (KFLO)
Temperature  
Mean Temperature 76 °F 69 °F  
Max Temperature 93 °F 81 °F 95 °F (1962)
Min Temperature 60 °F 57 °F 36 °F (1989)
Degree Days  
Heating Degree Days 0 1  
Month to date heating degree days 12  
Since 1 July heating degree days 2512  
Cooling Degree Days 12 5  
Month to date cooling degree days 36  
Year to date cooling degree days 132  
Growing Degree Days 26 (Base 50)    
Moisture  
Dew Point 55 °F    
Average Humidity 50    
Maximum Humidity 77    
Minimum Humidity 21    
Precipitation  
Precipitation 0.00 in 0.09 in 1.02 in (1973)
Month to date precipitation 0.71  
Year to date precipitation 12.81  
Sea Level Pressure  
Sea Level Pressure 30.16 in    
Wind  
Wind Speed 9 mph (SW)    
Max Wind Speed 18 mph    
Max Gust Speed 24 mph    
Visibility 10 miles    
Events      
T = Trace of Precipitation, MM = Missing Value Source: NWS Daily Summary

Daily Weather History Graph

Daily Weather History Graph

Search for Another Location

Airport or City:

Trip Planner

Search our weather history database for the weather conditions in past years. The results will help you decide how hot, cold, wet, or windy it might be!

Date:

Astronomy

May. 08, 2014 Rise Set
Actual Time 6:22 AM EDT 8:09 PM EDT
Civil Twilight 5:55 AM EDT 8:37 PM EDT
Nautical Twilight 5:22 AM EDT 9:10 PM EDT
Astronomical Twilight 4:47 AM EDT 9:45 PM EDT
Moon 2:23 PM EDT (5/8) 2:37 AM EDT (5/8)
Length of Visible Light 14h 41m
Length of Day
13h 46m
Waxing Gibbous, 64% of the Moon is Illuminated
May 8
Waxing Gibbous
May 14
Full
May 21
Last Quarter
May 28
New
Jun 5
First Quarter

Hourly Weather History & Observations

Time (EDT) Temp. Heat Index Dew Point Humidity Pressure Visibility Wind Dir Wind Speed Gust Speed Precip Events Conditions
12:15 AM 69.8 °F - 53.6 °F 56% 30.13 in 10.0 mi SSW 8.1 mph - N/A   Clear
12:35 AM 66.2 °F - 53.6 °F 64% 30.13 in 10.0 mi SSW 8.1 mph - N/A   Clear
12:55 AM 66.2 °F - 53.6 °F 64% 30.13 in 10.0 mi SW 8.1 mph - N/A   Clear
1:15 AM 66.2 °F - 55.4 °F 68% 30.13 in 10.0 mi SW 6.9 mph - N/A   Clear
1:35 AM 66.2 °F - 55.4 °F 68% 30.13 in 10.0 mi SSW 8.1 mph - N/A   Clear
1:55 AM 66.2 °F - 55.4 °F 68% 30.13 in 10.0 mi SSW 8.1 mph - N/A   Clear
2:15 AM 66.2 °F - 55.4 °F 68% 30.13 in 10.0 mi SSW 8.1 mph - N/A   Clear
2:35 AM 64.4 °F - 55.4 °F 73% 30.13 in 10.0 mi SSW 8.1 mph - N/A   Clear
2:55 AM 62.6 °F - 53.6 °F 72% 30.13 in 10.0 mi SSW 6.9 mph - N/A   Clear
3:15 AM 62.6 °F - 55.4 °F 77% 30.13 in 10.0 mi SSW 8.1 mph - N/A   Clear
3:35 AM 64.4 °F - 55.4 °F 73% 30.13 in 10.0 mi SW 6.9 mph - N/A   Clear
3:55 AM 64.4 °F - 55.4 °F 73% 30.13 in 10.0 mi SW 8.1 mph - N/A   Clear
4:15 AM 62.6 °F - 53.6 °F 72% 30.13 in 10.0 mi SW 8.1 mph - N/A   Clear
4:35 AM 62.6 °F - 53.6 °F 72% 30.14 in 10.0 mi SW 5.8 mph - N/A   Clear
4:55 AM 60.8 °F - 53.6 °F 77% 30.15 in 10.0 mi SSW 5.8 mph - N/A   Clear
5:15 AM 60.8 °F - 53.6 °F 77% 30.15 in 10.0 mi SSW 8.1 mph - N/A   Clear
5:35 AM 60.8 °F - 53.6 °F 77% 30.16 in 10.0 mi SW 9.2 mph - N/A   Clear
5:55 AM 60.8 °F - 53.6 °F 77% 30.17 in 10.0 mi SSW 8.1 mph - N/A   Clear
6:15 AM 60.8 °F - 53.6 °F 77% 30.18 in 10.0 mi SSW 8.1 mph - N/A   Clear
6:35 AM 60.8 °F - 53.6 °F 77% 30.19 in 10.0 mi SW 6.9 mph - N/A   Clear
6:55 AM 60.8 °F - 53.6 °F 77% 30.19 in 10.0 mi SW 8.1 mph - N/A   Clear
7:15 AM 62.6 °F - 53.6 °F 72% 30.20 in 10.0 mi SSW 8.1 mph - N/A   Clear
7:35 AM 64.4 °F - 55.4 °F 73% 30.20 in 10.0 mi SSW 6.9 mph - N/A   Clear
7:55 AM 66.2 °F - 55.4 °F 68% 30.20 in 10.0 mi SSW 9.2 mph - N/A   Clear
8:15 AM 69.8 °F - 55.4 °F 60% 30.21 in 10.0 mi SSW 9.2 mph - N/A   Clear
8:35 AM 71.6 °F - 57.2 °F 60% 30.21 in 10.0 mi SW 11.5 mph - N/A   Clear
8:55 AM 73.4 °F - 57.2 °F 57% 30.22 in 10.0 mi WSW 10.4 mph - N/A   Clear
9:15 AM 75.2 °F - 59.0 °F 57% 30.22 in 10.0 mi SW 11.5 mph - N/A   Clear
9:35 AM 77.0 °F - 59.0 °F 54% 30.23 in 10.0 mi SW 8.1 mph - N/A   Clear
9:55 AM 78.8 °F - 59.0 °F 51% 30.23 in 10.0 mi WSW 9.2 mph - N/A   Clear
10:15 AM 80.6 °F 81.5 °F 60.8 °F 51% 30.23 in 10.0 mi SW 8.1 mph - N/A   Clear
10:35 AM 80.6 °F 81.5 °F 60.8 °F 51% 30.23 in 10.0 mi West 8.1 mph - N/A   Clear
10:55 AM 82.4 °F 82.9 °F 60.8 °F 48% 30.23 in 10.0 mi WSW 6.9 mph - N/A   Clear
11:15 AM 84.2 °F 84.4 °F 60.8 °F 45% 30.23 in 10.0 mi WSW 8.1 mph - N/A   Clear
11:35 AM 86.0 °F 85.4 °F 59.0 °F 40% 30.22 in 10.0 mi West 6.9 mph - N/A   Clear
11:55 AM 87.8 °F 87.1 °F 59.0 °F 38% 30.22 in 10.0 mi WSW 8.1 mph - N/A   Clear
12:15 PM 87.8 °F 86.5 °F 57.2 °F 35% 30.21 in 10.0 mi West 5.8 mph - N/A   Clear
12:35 PM 89.6 °F 88.1 °F 57.2 °F 33% 30.20 in 10.0 mi SW 8.1 mph 16.1 mph N/A   Clear
12:55 PM 91.4 °F 89.4 °F 55.4 °F 29% 30.19 in 10.0 mi SW 18.4 mph - N/A   Clear
1:15 PM 91.4 °F 89.1 °F 53.6 °F 28% 30.19 in 10.0 mi SW 17.3 mph 24.2 mph N/A   Clear
1:35 PM 91.4 °F 89.1 °F 53.6 °F 28% 30.19 in 10.0 mi SW 12.7 mph 19.6 mph N/A   Clear
1:55 PM 91.4 °F - 51.8 °F 26% 30.18 in 10.0 mi WSW 13.8 mph 20.7 mph N/A   Clear
2:15 PM 93.2 °F - 51.8 °F 24% 30.17 in 10.0 mi WSW 17.3 mph 21.9 mph N/A   Clear
2:35 PM 93.2 °F - 51.8 °F 24% 30.17 in 10.0 mi West 13.8 mph 18.4 mph N/A   Clear
2:55 PM 93.2 °F - 51.8 °F 24% 30.15 in 10.0 mi SW 13.8 mph 19.6 mph N/A   Clear
3:15 PM 93.2 °F 90.8 °F 53.6 °F 26% 30.14 in 10.0 mi SSW 12.7 mph 16.1 mph N/A   Clear
3:35 PM 93.2 °F 90.8 °F 53.6 °F 26% 30.13 in 10.0 mi SW 11.5 mph 21.9 mph N/A   Clear
3:55 PM 93.2 °F 90.8 °F 53.6 °F 26% 30.13 in 10.0 mi SW 10.4 mph 18.4 mph N/A   Clear
4:15 PM 93.2 °F - 48.2 °F 21% 30.12 in 10.0 mi WSW 13.8 mph 21.9 mph N/A   Clear
4:35 PM 93.2 °F - 48.2 °F 21% 30.12 in 10.0 mi WSW 11.5 mph 19.6 mph N/A   Clear
4:55 PM 93.2 °F - 48.2 °F 21% 30.11 in 10.0 mi SW 16.1 mph - N/A   Clear
5:15 PM 93.2 °F - 48.2 °F 21% 30.11 in 10.0 mi WSW 9.2 mph - N/A   Clear
5:35 PM 91.4 °F - 51.8 °F 26% 30.11 in 10.0 mi SW 6.9 mph - N/A   Clear
5:55 PM 91.4 °F 89.1 °F 53.6 °F 28% 30.11 in 10.0 mi SSW 9.2 mph - N/A   Clear
6:15 PM 91.4 °F 89.1 °F 53.6 °F 28% 30.10 in 10.0 mi SW 10.4 mph - N/A   Clear
6:35 PM 89.6 °F 87.3 °F 53.6 °F 29% 30.10 in 10.0 mi SSW 12.7 mph - N/A   Clear
6:55 PM 89.6 °F 87.3 °F 53.6 °F 29% 30.11 in 10.0 mi SSW 9.2 mph - N/A   Clear
7:15 PM 87.8 °F 85.7 °F 53.6 °F 31% 30.11 in 10.0 mi SSW 8.1 mph - N/A   Clear
7:35 PM 84.2 °F 83.0 °F 55.4 °F 37% 30.12 in 10.0 mi SSW 6.9 mph - N/A   Clear
7:55 PM 82.4 °F 81.7 °F 55.4 °F 39% 30.13 in 10.0 mi SSW 5.8 mph - N/A   Partly Cloudy
8:15 PM 80.6 °F 80.5 °F 55.4 °F 42% 30.13 in 10.0 mi South 5.8 mph - N/A   Scattered Clouds
8:35 PM 80.6 °F 80.5 °F 55.4 °F 42% 30.14 in 10.0 mi South 5.8 mph - N/A   Partly Cloudy
8:55 PM 78.8 °F - 55.4 °F 44% 30.14 in 10.0 mi SSW 5.8 mph - N/A   Clear
9:15 PM 77.0 °F - 55.4 °F 47% 30.15 in 10.0 mi SSW 4.6 mph - N/A   Clear
9:35 PM 75.2 °F - 55.4 °F 50% 30.15 in 10.0 mi WSW 4.6 mph - N/A   Clear
9:55 PM 73.4 °F - 57.2 °F 57% 30.16 in 10.0 mi SW 3.5 mph - N/A   Clear
10:15 PM 73.4 °F - 55.4 °F 53% 30.17 in 10.0 mi SW 5.8 mph - N/A   Clear
10:35 PM 73.4 °F - 57.2 °F 57% 30.17 in 10.0 mi SW 8.1 mph - N/A   Clear
10:55 PM 73.4 °F - 57.2 °F 57% 30.17 in 10.0 mi SSW 5.8 mph - N/A   Clear
11:15 PM 71.6 °F - 57.2 °F 60% 30.17 in 10.0 mi SSW 5.8 mph - N/A   Clear
11:35 PM 71.6 °F - 57.2 °F 60% 30.17 in 10.0 mi SSW 5.8 mph - N/A   Clear
11:55 PM 69.8 °F - 57.2 °F 64% 30.17 in 10.0 mi SSW 5.8 mph - N/A   Clear